This demonstration page uses our WeatherBlox Daily Observations layout. Learn more.

38.89511, -77.03637

Hourly Observations for September 29, 2017

Temp ( °F °C ) Dew Point ( °F °C ) Humidity (%) Winds ( mph kmh ) Pressure ( in mb ) Visibility ( mi km ) Precip ( " mm )
12:52 am 00:52 Partly Cloudy 67 19.4 50 10 55 55 NNE 12 19 30.03 1017 10 16.09344 0 0
1:52 am 01:52 Clear 64 17.8 49 9.4 58 58 NNE 13 20 30.03 1017 10 16.09344 0 0
2:52 am 02:52 Clear 63 17.2 48 8.9 58 58 NNE 13 20 30.03 1017 10 16.09344 0 0
3:52 am 03:52 Mostly Clear 62 16.7 49 9.4 62 62 N 9 15 30.03 1017 10 16.09344 0 0
4:52 am 04:52 Mostly Clear 61 16.1 49 9.4 65 65 NW 8 13 30.06 1018 10 16.09344 0 0
5:52 am 05:52 Clear 59 15 48 8.9 67 67 NNW 8 13 30.09 1019 10 16.09344 0 0
6:52 am 06:52 Mostly Clear 59 15 48 8.9 67 67 NNW 8 13 30.09 1019 10 16.09344 0 0
7:52 am 07:52 Mostly Sunny 60 15.6 48 8.9 65 65 NNW 5 7 30.09 1019 10 16.09344 0 0
8:52 am 08:52 Mostly Sunny 62 16.7 49 9.4 62 62 NNW 7 11 30.12 1020 10 16.09344 0 0
9:52 am 09:52 Mostly Sunny 66 18.9 47 8.3 50 50 Calm 30.12 1020 10 16.09344 0 0
10:52 am 10:52 Mostly Sunny 67 19.4 45 7.2 45 45 Calm 30.12 1020 10 16.09344 0 0
11:52 am 11:52 Mostly Sunny 69 20.6 45 7.2 42 42 NNE 7 11 30.09 1019 10 16.09344 0 0
12:52 pm 12:52 Partly Cloudy 71 21.7 46 7.8 41 41 NE 6 9 30.09 1019 10 16.09344 0 0
1:52 pm 13:52 Partly Cloudy 72 22.2 45 7.2 38 38 N 9 15 30.06 1018 10 16.09344 0 0
2:52 pm 14:52 Mostly Cloudy 74 23.3 46 7.8 37 37 N 5 7 30.06 1018 10 16.09344 0 0
3:52 pm 15:52 Mostly Cloudy 74 23.3 46 7.8 37 37 W 5 7 30.03 1017 10 16.09344 0 0
4:52 pm 16:52 Partly Cloudy 74 23.3 45 7.2 36 36 WNW 12 19 30.03 1017 10 16.09344 0 0
5:52 pm 17:52 Mostly Sunny 73 22.8 45 7.2 37 37 WNW 9 15 30.03 1017 10 16.09344 0 0
6:52 pm 18:52 Mostly Sunny 71 21.7 45 7.2 39 39 Calm 30.03 1017 10 16.09344 0 0
7:52 pm 19:52 Mostly Clear 69 20.6 51 10.6 53 53 SSE 5 7 30.03 1017 10 16.09344 0 0
8:52 pm 20:52 Mostly Clear 66 18.9 53 11.7 63 63 SSW 8 13 30.06 1018 10 16.09344 0 0
9:21 pm 21:21 Partly Cloudy 66 18.9 52 11.1 61 61 SSW 7 11 30.09 1019 10 16.09344 0 0
9:52 pm 21:52 Mostly Clear 64 17.8 52 11.1 65 65 SSW 5 7 30.06 1018 10 16.09344 0 0
10:52 pm 22:52 Partly Cloudy 64 17.8 52 11.1 65 65 SW 3 6 30.06 1018 10 16.09344 0 0
11:52 pm 23:52 Mostly Cloudy 64 17.8 55 12.8 73 73 SW 5 7 30.06 1018 10 16.09344 0 0

Powered by AerisWeather